Content
SEND FEEDBACK

Daily
Averages
Monthly
Summary
United States of America

OTTERTAIL, MINNESOTA


Home > North America > United States > Minnesota
Elevation: 1356 feet     Latitude: 46 25N     Longitude: 095 34W

WEATHER
 
SELECT A DAY
Number of Records: 469,760;   Date Range: 1/1/95 - 12/20/14
 
SHARE

PRINT THIS DATA

[ ← Previous Day ]
WEATHER ALMANAC - FEBRUARY 13, 2013
[ Next Day → ]
[ °C ]   °F
Weather ElementAverageHighLow
Temperature23.2 °F30.2 °F (4:33 pm)15.8 °F (12:33 am)
Dewpoint21.8 °F28.4 °F (3:13 pm)12.2 °F (12:33 am)
Humidity94.6 %100 % (2:33 am)86 % (12:33 am)
Barometer29.66 in29.78 in (1:13 am)29.56 in (2:53 pm)
Wind Speed4.4 mph11.5 mph (11:53 pm)
Weather ElementAverage
Visibility5.1 mi
Wind DirectionS (180.1 °)

Weather ElementTotal
Precipitation0.37 in
Heating Degree Days42 (Base 65)
Averaged from 69 records on February 13, 2013
WEATHER CONDITIONS BREAKOUT
WIND DIRECTION BREAKOUT
WEATHER BY HOUR - FEBRUARY 13, 2013
[ °C ]   °F
Local TimeTemperatureDewpointHumidityBarometerVisibilityWind DirectionWind SpeedGust SpeedPrecipitationEventsConditions
12:33 AM15.8 °F12.2 °F86 %29.77 in1.0 miWSW (240°)4.6 mphMist
12:53 AM15.8 °F14.0 °F93 %29.77 in2.0 miSW (220°)3.5 mphMist
1:13 AM15.8 °F12.2 °F86 %29.78 in5.0 miWSW (250°)4.6 mphMist
1:33 AM17.6 °F15.8 °F93 %29.77 in5.0 miSW (220°)4.6 mphMist
1:53 AM17.6 °F15.8 °F93 %29.76 in7.0 miSSW (210°)4.6 mphOvercast
2:13 AM17.6 °F15.8 °F93 %29.75 in10.0 miSSW (200°)3.5 mph
2:33 AM17.6 °F17.6 °F100 %29.75 in10.0 miSSW (200°)5.8 mphOvercast
2:53 AM19.4 °F17.6 °F93 %29.74 in10.0 miSSE (160°)4.6 mphOvercast
3:13 AM19.4 °F19.4 °F100 %29.74 in10.0 miSSE (150°)3.5 mphOvercast
3:33 AM19.4 °F19.4 °F100 %29.73 in10.0 miSSE (160°)3.5 mphOvercast
3:53 AM21.2 °F19.4 °F93 %29.72 in10.0 miSSW (200°)3.5 mphOvercast
4:13 AM21.2 °F19.4 °F93 %29.72 in10.0 miSSE (160°)4.6 mphOvercast
4:33 AM21.2 °F19.4 °F93 %29.71 in10.0 miSSE (160°)4.6 mphOvercast
4:53 AM21.2 °F19.4 °F93 %29.71 in10.0 miSSE (160°)4.6 mphMostly Cloudy
5:13 AM19.4 °F19.4 °F100 %29.70 in10.0 miSouth (170°)5.8 mphScattered Clouds
5:33 AM19.4 °F17.6 °F93 %29.70 in10.0 miSouth (170°)6.9 mphClear
5:53 AM19.4 °F17.6 °F93 %29.70 in10.0 miSSE (160°)5.8 mphClear
6:05 AM17.6 °F15.8 °F93 %29.69 in10.0 miSSE (160°)5.8 mphClear
6:33 AM17.6 °F15.8 °F93 %29.69 in7.0 miSouth (170°)5.8 mphClear
6:50 AM15.8 °F12.2 °F86 %29.68 in7.0 miSouth (170°)5.8 mphClear
7:13 AM17.6 °F15.8 °F93 %29.68 in7.0 miSouth (170°)4.6 mphClear
7:33 AM15.8 °F15.8 °F100 %29.68 in5.0 miSouth (170°)4.6 mphClear
7:53 AM15.8 °F15.8 °F100 %29.68 in4.0 miSouth (180°)3.5 mphClear
8:13 AM17.6 °F15.8 °F93 %29.68 in3.0 miSSW (200°)4.6 mphClear
8:33 AM17.6 °F15.8 °F93 %29.68 in2.5 miSouth (180°)3.5 mphClear
8:53 AM19.4 °F17.6 °F93 %29.67 in3.0 miCalmClear
9:13 AM19.4 °F17.6 °F93 %29.66 in4.0 miSSW (200°)3.5 mphClear
9:33 AM19.4 °F17.6 °F93 %29.65 in7.0 miCalmClear
9:53 AM19.4 °F17.6 °F93 %29.66 in7.0 miSSW (210°)3.5 mphClear
10:13 AM19.4 °F19.4 °F100 %29.66 in10.0 miSW (220°)4.6 mphClear
10:33 AM21.2 °F19.4 °F93 %29.66 in10.0 miSW (220°)3.5 mphClear
11:13 AM21.2 °F21.2 °F100 %29.65 in10.0 miCalmClear
11:33 AM23.0 °F21.2 °F93 %29.64 in10.0 miCalmClear
11:53 AM24.8 °F21.2 °F86 %29.64 in10.0 miCalmClear
12:13 PM24.8 °F21.2 °F86 %29.63 in10.0 miCalmClear
12:53 PM24.8 °F21.2 °F86 %29.61 in1.5 miCalmRainLight Rain
1:13 PM26.6 °F23.0 °F86 %29.60 in1.0 miCalmRainRain
1:33 PM26.6 °F24.8 °F93 %29.59 in0.8 miCalm0.01 inOvercast
1:53 PM26.6 °F26.6 °F100 %29.58 in0.5 miCalm0.02 inSnowLight Snow
2:13 PM28.4 °F26.6 °F93 %29.57 in0.5 miESE (120°)3.5 mph0.01 inSnowLight Snow
2:33 PM28.4 °F26.6 °F93 %29.57 in0.2 miSE (140°)3.5 mph0.03 inSnowSnow
2:53 PM28.4 °F26.6 °F93 %29.56 in0.2 miSE (140°)3.5 mph0.04 inSnowSnow
3:13 PM28.4 °F28.4 °F100 %29.56 in0.5 miSE (130°)3.5 mph0.01 inSnowSnow
3:33 PM28.4 °F28.4 °F100 %29.56 in0.5 miCalm0.03 inSnowSnow
3:53 PM28.4 °F28.4 °F100 %29.56 in0.5 miSE (140°)3.5 mph0.04 inSnowSnow
4:13 PM28.4 °F28.4 °F100 %29.56 in0.8 miCalm0.01 inSnowLight Snow
4:33 PM30.2 °F28.4 °F93 %29.57 in1.0 miCalm0.02 inOvercast
4:53 PM28.4 °F28.4 °F100 %29.57 in0.5 miCalm0.03 inRainRain
5:13 PM28.4 °F28.4 °F100 %29.58 in0.5 miNNW (330°)4.6 mph0.02 inSnowSnow
5:33 PM28.4 °F28.4 °F100 %29.58 in0.2 miNW (320°)4.6 mph0.03 inSnowSnow
5:51 PM28.4 °F28.4 °F100 %29.59 in1.0 miNorth0.04 inSnowLight Snow
6:14 PM28.4 °F28.4 °F100 %29.59 in2.0 miNNW (340°)6.9 mphOvercast
6:33 PM28.4 °F28.4 °F100 %29.60 in1.5 miNorth (350°)5.8 mph0.01 inOvercast
6:52 PM28.4 °F28.4 °F100 %29.60 in1.2 miNorth (350°)9.2 mph0.01 inSnowLight Snow
7:10 PM28.4 °F28.4 °F100 %29.61 in2.5 miNorth (350°)9.2 mphSnowLight Snow
7:33 PM28.4 °F26.6 °F93 %29.62 in1.5 miNorth (360°)5.8 mphSnowLight Snow
7:53 PM28.4 °F28.4 °F100 %29.63 in2.5 miNorth (10°)5.8 mphSnowLight Snow
8:13 PM28.4 °F28.4 °F100 %29.63 in2.5 miNorth (10°)4.6 mphSnowLight Snow
8:33 PM28.4 °F26.6 °F93 %29.64 in2.5 miNorth (360°)6.9 mph0.01 inOvercast
8:53 PM28.4 °F26.6 °F93 %29.65 in2.0 miNorth (360°)8.1 mphSnowLight Snow
9:13 PM28.4 °F26.6 °F93 %29.65 in3.0 miNorth (360°)6.9 mphSnowLight Snow
9:33 PM26.6 °F26.6 °F100 %29.67 in3.0 miNorth (350°)9.2 mphSnowLight Snow
9:53 PM26.6 °F26.6 °F100 %29.67 in3.0 miNorth (360°)6.9 mphSnowLight Snow
10:13 PM26.6 °F24.8 °F93 %29.68 in4.0 miNorth (360°)8.1 mphMostly Cloudy
10:33 PM26.6 °F24.8 °F93 %29.68 in7.0 miNorth (360°)6.9 mphScattered Clouds
10:53 PM26.6 °F24.8 °F93 %29.69 in10.0 miNorth (360°)6.9 mphMostly Cloudy
11:13 PM26.6 °F23.0 °F86 %29.70 in10.0 miNorth (350°)10.4 mphOvercast
11:33 PM24.8 °F21.2 °F86 %29.71 in10.0 miNNW (340°)8.1 mphScattered Clouds
11:53 PM19.4 °F17.6 °F93 %29.72 in10.0 miNNW (340°)11.5 mphClear
Hourly data recorded from KFFM, located miles away from Ottertail, Minnesota







STORIES FROM OUR PARTNERS